1998-067PZ

Last updated on Sun Feb 03 2019 00:02:04 GMT+0000 (Coordinated Universal Time)

1 44033U 98067PZ 19032.79791670 .00010053 00000-0 16080-3 0 9992 2 44033 51.6431 314.5517 0005404 8.6517 351.4483 15.53791946 178

Satellite not in orbit

1998-067PZ